Location: Le Sartre
(44.8050°N, 2.2123°E)
Time: 07:27:45
(UTC+00:00)

Cosmos 1464 Rocket - Pass Details

Date: 15 May 2026
Orbit: 952 x 1000 km, 82.9° (Epoch: 5 June)

Event Time Altitude Azimuth Distance (km) Brightness Sun altitude
Exits shadow 21:18:41 24° 171° (S) 1,864 5.0 -17.7°
Maximum altitude 21:22:29 69° 94° (E) 1,024 3.9 -18.1°
Drops below altitude 10° 21:28:38 10° 13° (NNE) 2,712 6.9 -18.7°
Sets 21:31:10 0° 11° (N) 3,669 7.7 -19.0°
